Lid_Strength_Index
-0 -1 -1 -1 -1 -1 -1 -1 -1 -1 -1 -1 -1 -1 -1 -1 -1 -1 -2 -0 -0 -1 -2 -2 -2 -2 -1 -2 -2 -2 -2 -2 -2 -2 -2 -2 -2 -2 -2 -1 -1 -1 -1
-1 -1 -0 -0 -1 -1 -1 -1 -1 -1 -1 -1 -1 -1 -1 -1 -1 -1 -2 -2 0 -1 -1 -2 -1 -1 -2 -2 -2 -2 -1 -2 -2 -2 -2 -2 -2 -2 -2 -1 -0 -1 -1
-1 -0 -0 -0 -0 -1 -1 -1 -1 -1 -1 -1 -1 -1 -1 -1 -1 -1 -1 -2 -1 1 0 -1 -1 -1 -2 -2 -2 -2 -1 -2 -2 -2 -2 -2 -2 -2 -1 -0 -0 -1 -1
-1 -0 0 -0 -1 -1 -1 -0 0 0 0 0 -0 -0 -1 -1 -1 -1 -1 -1 -1 -2 0 -0 -1 -1 -1 -2 -2 -1 -1 -2 -2 -2 -2 -2 -2 -2 -1 -0 0 -0 -0
-1 -0 -0 -0 -1 -0 0 -0 0 0 1 0 0 -0 -0 -0 -1 -1 -1 -1 -2 -2 -2 0 0 0 -1 -1 -2 -2 -1 -1 -1 -2 -2 -2 -2 -2 -1 -1 -0 -0 -0
-1 -0 -0 -0 -0 0 0 0 1 0 0 0 1 1 0 -0 -1 -1 -0 -1 -1 -2 -2 -2 -2 -1 0 -1 -1 -2 -2 -1 -1 -1 -2 -2 -2 -2 -1 -1 -0 -0 0
-1 -0 -0 -0 -0 0 0 0 1 1 1 0 1 2 1 0 0 0 -1 -0 -1 -1 -2 -2 -2 -2 -1 -0 -1 -1 -2 -2 -1 -2 -2 -2 -2 -2 -1 -1 -1 -0 0
-1 -0 -0 0 0 0 1 0 1 2 1 1 3 3 4 3 1 0 -0 -0 -0 -1 -1 -1 -1 -1 -1 -1 -1 -1 -2 -2 -2 -1 -2 -2 -2 -2 -2 -1 -1 -1 0
-1 -0 -0 -0 -0 -0 1 1 1 1 3 1 1 2 5 5 3 1 1 1 0 0 -0 -1 -1 -1 -2 -1 -0 -0 2 1 -0 -1 -1 -2 -2 -2 -2 -2 -1 -1 0
-0 -1 -1 -0 -0 0 0 1 0 1 1 3 1 1 1 1 4 4 1 1 0 1 0 -0 -0 -1 -1 -1 -0 1 3 4 2 0 -1 -2 -2 -2 -2 -2 -1 -1 -0
-0 -0 -0 -0 0 0 0 0 1 1 1 1 2 2 2 2 1 3 4 3 1 0 -0 -0 -0 -1 -1 -1 -1 0 4 5 4 1 -1 -1 -2 -2 -2 -2 -2 -2 -1
1 0 0 0 0 0 1 0 0 1 1 1 1 1 2 3 3 3 4 3 3 2 0 -0 -0 -1 -1 -1 -0 2 4 5 5 2 0 -1 -1 -1 -1 -1 -1 -2 -2
1 1 1 1 0 0 0 0 0 1 1 1 1 1 1 1 1 2 3 3 3 2 1 0 -0 -1 -1 -1 -0 3 5 6 5 4 2 1 0 -0 -0 -1 -1 -1 -1
1 0 1 1 0 0 0 0 0 0 0 1 1 1 1 1 1 1 2 3 4 3 2 2 -0 -0 -1 -1 0 4 1 7 7 6 4 2 2 1 1 0 0 1 0
2 1 0 1 2 0 1 0 1 1 1 1 1 1 1 1 1 0 1 1 3 6 5 2 2 -0 -0 -0 1 1 1 5 7 7 6 4 3 2 3 3 2 2 2
4 2 1 1 1 1 1 1 1 1 1 1 1 1 1 1 1 0 1 1 1 3 5 2 1 0 -0 0 2 1 1 5 7 8 7 6 5 4 4 4 4 4 3
5 3 1 1 1 1 1 1 1 1 1 1 1 1 1 1 1 1 1 1 2 2 4 2 1 0 1 1 2 1 1 1 2 8 9 8 8 7 7 6 6 5 5
9 8 6 1 1 1 1 1 1 1 1 2 2 2 2 2 1 1 1 1 1 1 2 4 2 2 1 1 2 2 2 2 2 7 8 9 8 8 8 8 8 7 7
11 10 10 10 8 2 2 1 1 1 1 1 1 2 2 2 2 2 2 1 1 1 1 2 3 2 2 1 2 2 3 3 2 5 8 9 9 9 8 9 8 8 8
13 13 12 12 12 13 13 12 10 3 2 2 2 1 1 1 2 3 2 1 1 2 2 2 3 3 3 2 2 3 4 3 3 3 9 9 8 9 8 9 9 9 9
13 14 13 14 14 14 14 14 12 9 4 2 2 2 1 2 5 4 2 1 1 2 3 3 3 3 4 4 4 3 4 4 3 5 7 8 7 7 8 9 8 9 9
13 12 14 14 15 15 15 14 13 8 6 3 2 2 2 6 6 9 9 7 3 2 3 3 3 4 4 4 3 3 4 5 7 7 8 12 11 12 11 11 11 11 11
12 13 13 13 15 15 14 14 14 12 13 13 13 13 6 2 5 3 9 10 9 9 7 2 3 3 3 2 3 3 4 4 5 8 11 15 14 15 13 12 12 12 12
12 12 13 13 13 14 15 15 15 13 14 14 15 15 14 13 14 13 3 5 6 9 9 7 4 1 1 0 1 1 3 6 12 13 12 16 15 16 15 14 13 12 13
13 13 13 14 14 14 15 15 14 14 15 15 16 16 16 16 15 14 10 7 12 15 14 13 14 14 14 13 11 4 9 9 12 13 14 15 16 16 16 15 15 14 14
12 13 13 14 15 15 14 14 14 15 17 17 17 17 17 17 16 15 12 10 12 14 16 15 15 15 16 15 15 14 8 8 12 13 13 15 16 16 17 16 15 14 14